Weather in Chudovo

Russia / Novgorod Oblast     59°07′16″N   31°40′13″E
temp.,
°C
wind,
m/s
gust,
m/s
humid.,
%
clouds,
%
prec.,
mm/h
press.,
hPa
HPBL,
m
2 march, tue
tue200:00+2wnw4129096 0.0 1011756
03:00+1wnw5139098 0.0 1012663
06:000w4129295 0.0 1010471
09:00+1wnw4119197 0.0 1010656
12:00+2nw6118176 0.0 1011834
15:00+2nw6117888 0.0 10131015
18:00+1nw5137695 0.1 10141137
21:000nw4138560 0.3 1017777
3 march, wed
wed300:00−2wnw3119132 0.1 1017371
03:00−2wnw4119231 0.1 1018463
06:00−2wnw4109344 0.0 1016444
09:00−1wnw5118953 0.0 1016571
12:00+1w5980100 0.0 1014768
15:00+2w51172100 0.0 10121287
18:00+1w51275100 0.0 1008984
21:00+1w51197100 0.1 1006763
4 march, thu
thu400:00+1wnw41090100 1.5 1004804
03:00−1nw3989100 1.6 1004579
06:00−4nw288763 0.0 1003326
09:00−4nw278231 0.0 1003373
12:00−2nnw24690 0.0 1003675
15:00−1nnw246716 0.0 10031005
18:00−3n258099 0.2 1003460
21:00−5nnw487995 0.3 1005714
5 march, fri
fri500:00−5nw379098 0.0 1005561
03:00−5nw378796 0.1 1007621
06:00−7nw369197 0.1 1007454
09:00−7nw358599 0.1 1009586
12:00−6nw3576100 0.1 1010746
15:00−5nw3572100 0.1 1012833
18:00−6nnw3583100 0.2 1013676
21:00−7n2489100 0.3 1015445
6 march, sat
sat600:00−8nw149081 0.0 1016158
03:00−8w229378 0.0 101795
06:00−9w269572 0.0 1016220
09:00−8wsw368737 0.0 1015294
12:00−4wsw47670 0.0 1014859
15:00−3sw6106435 0.0 10101323
18:00−4sw71584100 0.1 10041404
21:00−4sw71591100 1.4 9991256